Tracking 33200 objects as of 17-Feb-2026
HD Live streaming from Space Station
objects crossing your sky now

STARLINK-30516

Track STARLINK-30516 now!
10-day predictions
STARLINK-30516 is classified as:


NORAD ID: 57984
Int'l Code: 2023-151W
Perigee: 565.0 km
Apogee: 567.5 km
Inclination: 43.0 °
Period: 95.8 minutes
Semi major axis: 6937 km
RCS: Unknown
Launch date: September 30, 2023
Source: United States (US)
Launch site: AIR FORCE EASTERN TEST RANGE (AFETR)
Your satellite tracking list
Your tracking list is empty




NASA's NSSDC Master Catalog

Two Line Element Set (TLE):
1 57984U 23151W   26047.57818951 -.00001021  00000-0 -60493-4 0  9990
2 57984  43.0043 106.5849 0001757 268.5546  91.5095 15.02531846132402
Source of the keplerian elements: AFSPC